SCF1802 ZBAD-ZUUU

Flight info

Callsign SCF1802
Flight time N/A
Altitude 32100
Route PEGSO6K PEGSO B215 GODON W43 SAVPA W276 ANRUG W279 ONEBA G212 SUBUL W230 AKDIK AKDIK7U
Aircraft A320/M-SDE3FGHIRWY/LB1

Departure

Time N/A
Airport Beijing Daxing International Airport (ZBAD)

Arrival

Time 2026-05-06 15:03
Airport Chengdu Shuangliu International Airport (ZUUU)
Time Latitude Longitude Altitude Speed Heading
2026-05-06 12:52 38.65385 116.13752 14692 ft 338 kts 271°
2026-05-06 12:52 38.65604 116.10756 14697 ft 339 kts 280°
2026-05-06 12:53 38.66294 116.07867 14748 ft 344 kts 291°
2026-05-06 12:53 38.67475 116.05174 15355 ft 349 kts 299°
2026-05-06 12:53 38.68788 116.02550 16030 ft 351 kts 299°
2026-05-06 12:53 38.70100 115.99902 16679 ft 354 kts 299°
2026-05-06 12:54 38.71420 115.97234 17305 ft 356 kts 299°
2026-05-06 12:54 38.72753 115.94542 17917 ft 359 kts 298°
2026-05-06 12:54 38.74095 115.91829 18452 ft 362 kts 298°
2026-05-06 12:54 38.75450 115.89090 18961 ft 365 kts 298°
2026-05-06 12:55 38.76811 115.86339 19478 ft 367 kts 298°
2026-05-06 12:55 38.78182 115.83568 19994 ft 369 kts 298°
2026-05-06 12:55 38.79567 115.80778 20504 ft 372 kts 298°
2026-05-06 12:55 38.80960 115.77973 21002 ft 374 kts 298°
2026-05-06 12:56 38.82359 115.75151 21521 ft 376 kts 298°
2026-05-06 12:56 38.83762 115.72315 22018 ft 378 kts 297°
2026-05-06 12:56 38.85173 115.69454 22510 ft 380 kts 297°
2026-05-06 12:56 38.86590 115.66577 22977 ft 383 kts 297°
2026-05-06 12:57 38.88016 115.63685 23453 ft 385 kts 297°
2026-05-06 12:57 38.88963 115.61759 23728 ft 386 kts 297°
2026-05-06 12:57 38.90881 115.57852 24255 ft 387 kts 297°
2026-05-06 12:57 38.92113 115.54799 24612 ft 383 kts 287°
2026-05-06 12:58 38.92621 115.52642 24852 ft 381 kts 279°
2026-05-06 12:58 38.92905 115.49275 25213 ft 379 kts 268°
2026-05-06 12:58 38.92602 115.45914 25579 ft 380 kts 257°
2026-05-06 12:58 38.91733 115.42704 25944 ft 382 kts 247°
2026-05-06 12:59 38.90635 115.39591 26329 ft 383 kts 247°
2026-05-06 12:59 38.89536 115.36467 26677 ft 384 kts 247°
2026-05-06 12:59 38.88438 115.33340 27060 ft 385 kts 247°
2026-05-06 12:59 38.87336 115.30191 27388 ft 387 kts 247°
2026-05-06 13:00 38.86230 115.27030 27694 ft 389 kts 247°
2026-05-06 13:00 38.85116 115.23855 28021 ft 391 kts 247°
2026-05-06 13:00 38.83998 115.20675 28352 ft 392 kts 247°
2026-05-06 13:00 38.82873 115.17484 28677 ft 393 kts 246°
2026-05-06 13:01 38.81740 115.14286 28996 ft 395 kts 246°
2026-05-06 13:01 38.80600 115.11077 29303 ft 396 kts 246°
2026-05-06 13:01 38.79459 115.07868 29715 ft 394 kts 246°
2026-05-06 13:01 38.78328 115.04679 30154 ft 392 kts 246°
2026-05-06 13:02 38.77202 115.01502 30521 ft 390 kts 246°
2026-05-06 13:02 38.76084 114.98349 30897 ft 389 kts 246°
2026-05-06 13:02 38.74981 114.95247 31248 ft 387 kts 246°
2026-05-06 13:02 38.73868 114.92116 31644 ft 385 kts 247°
2026-05-06 13:03 38.72762 114.89000 31952 ft 384 kts 247°
2026-05-06 13:03 38.70541 114.82761 32030 ft 381 kts 247°
2026-05-06 13:04 38.68352 114.76635 32026 ft 381 kts 247°
2026-05-06 13:04 38.66150 114.70473 32031 ft 381 kts 247°
2026-05-06 13:05 38.63945 114.64306 32019 ft 382 kts 247°
2026-05-06 13:05 38.61726 114.58135 32033 ft 382 kts 246°
2026-05-06 13:06 38.59485 114.51978 32022 ft 382 kts 246°
2026-05-06 13:06 38.57242 114.45820 32024 ft 382 kts 246°
2026-05-06 13:07 38.55013 114.39661 32028 ft 382 kts 246°
2026-05-06 13:07 38.52782 114.33504 32048 ft 382 kts 247°
2026-05-06 13:08 38.50547 114.27350 32042 ft 382 kts 247°
2026-05-06 13:08 38.48306 114.21203 32045 ft 382 kts 246°
2026-05-06 13:09 38.46058 114.15055 32043 ft 382 kts 247°
2026-05-06 13:09 38.43811 114.08911 32056 ft 382 kts 247°
2026-05-06 13:10 38.41556 114.02767 32078 ft 383 kts 247°
2026-05-06 13:10 38.39309 113.96636 32083 ft 381 kts 247°
2026-05-06 13:11 38.37062 113.90512 32027 ft 382 kts 247°
2026-05-06 13:11 38.34805 113.84384 32052 ft 383 kts 247°
2026-05-06 13:12 38.32524 113.78259 32052 ft 383 kts 246°
2026-05-06 13:12 38.30213 113.72146 32099 ft 384 kts 246°
2026-05-06 13:13 38.27898 113.66033 32102 ft 384 kts 246°
2026-05-06 13:13 38.25584 113.59919 32111 ft 383 kts 246°
2026-05-06 13:14 38.23273 113.53814 32059 ft 383 kts 247°
2026-05-06 13:14 38.20954 113.47710 32075 ft 384 kts 246°
2026-05-06 13:15 38.18624 113.41594 32102 ft 384 kts 247°
2026-05-06 13:15 38.16293 113.35476 32118 ft 385 kts 247°
2026-05-06 13:16 38.13996 113.29345 32115 ft 384 kts 248°
2026-05-06 13:16 38.11722 113.23205 32122 ft 384 kts 248°
2026-05-06 13:17 38.09452 113.17107 32100 ft 385 kts 247°
2026-05-06 13:17 38.07148 113.10954 32113 ft 386 kts 247°
2026-05-06 13:18 38.04838 113.04810 32135 ft 386 kts 247°
2026-05-06 13:18 38.02525 112.98666 32137 ft 386 kts 247°
2026-05-06 13:19 38.00213 112.92535 32144 ft 386 kts 247°
2026-05-06 13:19 37.97902 112.86407 32134 ft 385 kts 248°
2026-05-06 13:20 37.95589 112.80292 32120 ft 385 kts 248°
2026-05-06 13:20 37.93271 112.74171 32119 ft 386 kts 247°
2026-05-06 13:21 37.90942 112.68047 32129 ft 386 kts 247°
2026-05-06 13:21 37.88611 112.61924 32133 ft 386 kts 247°
2026-05-06 13:22 37.86245 112.55829 32137 ft 386 kts 246°
2026-05-06 13:22 37.83702 112.49824 32133 ft 388 kts 245°
2026-05-06 13:23 37.81110 112.43846 32123 ft 388 kts 245°
2026-05-06 13:23 37.78538 112.37846 32138 ft 388 kts 245°
2026-05-06 13:24 37.76034 112.31811 32141 ft 387 kts 247°
2026-05-06 13:24 37.73711 112.25683 32145 ft 387 kts 248°
2026-05-06 13:25 37.71420 112.19532 32162 ft 387 kts 248°
2026-05-06 13:25 37.69104 112.13443 32152 ft 387 kts 247°
2026-05-06 13:26 37.66747 112.07326 32132 ft 387 kts 248°
2026-05-06 13:26 37.64396 112.01218 32148 ft 387 kts 248°
2026-05-06 13:27 37.62047 111.95114 32159 ft 386 kts 248°
2026-05-06 13:27 37.59693 111.89031 32179 ft 386 kts 248°
2026-05-06 13:28 37.57336 111.82956 32169 ft 385 kts 248°
2026-05-06 13:28 37.54987 111.76892 32192 ft 385 kts 248°
2026-05-06 13:29 37.52624 111.70829 32188 ft 385 kts 248°
2026-05-06 13:29 37.50044 111.64912 32144 ft 388 kts 241°
2026-05-06 13:30 37.47019 111.59275 32154 ft 389 kts 241°
2026-05-06 13:30 37.43984 111.53628 32169 ft 390 kts 241°
2026-05-06 13:31 37.40973 111.48026 32166 ft 389 kts 241°
2026-05-06 13:31 37.37941 111.42392 32159 ft 390 kts 241°
2026-05-06 13:32 37.34893 111.36754 32155 ft 390 kts 240°
2026-05-06 13:32 37.31843 111.31124 32152 ft 390 kts 240°
2026-05-06 13:33 37.28790 111.25483 32166 ft 391 kts 240°
2026-05-06 13:33 37.25734 111.19855 32162 ft 390 kts 240°
2026-05-06 13:34 37.22683 111.14228 32166 ft 390 kts 240°
2026-05-06 13:34 37.19628 111.08614 32192 ft 390 kts 240°
2026-05-06 13:35 37.16569 111.03003 32144 ft 390 kts 240°
2026-05-06 13:35 37.13506 110.97383 32153 ft 391 kts 240°
2026-05-06 13:36 37.10431 110.91758 32155 ft 391 kts 240°
2026-05-06 13:36 37.07352 110.86138 32157 ft 391 kts 240°
2026-05-06 13:37 37.04268 110.80524 32180 ft 392 kts 240°
2026-05-06 13:37 37.01172 110.74912 32173 ft 391 kts 241°
2026-05-06 13:38 36.98095 110.69298 32168 ft 391 kts 241°
2026-05-06 13:38 36.95086 110.63647 32151 ft 390 kts 241°
2026-05-06 13:39 36.92084 110.57995 32150 ft 389 kts 241°
2026-05-06 13:39 36.89086 110.52367 32148 ft 390 kts 241°
2026-05-06 13:40 36.86073 110.46739 32144 ft 390 kts 241°
2026-05-06 13:40 36.83064 110.41138 32145 ft 393 kts 241°
2026-05-06 13:41 36.80013 110.35484 32152 ft 393 kts 241°
2026-05-06 13:41 36.76970 110.29832 32145 ft 392 kts 241°
2026-05-06 13:42 36.73928 110.24185 32145 ft 392 kts 241°
2026-05-06 13:42 36.70871 110.18538 32157 ft 393 kts 241°
2026-05-06 13:43 36.67809 110.12896 32125 ft 393 kts 241°
2026-05-06 13:43 36.64739 110.07234 32144 ft 395 kts 241°
2026-05-06 13:44 36.61660 110.01564 32156 ft 395 kts 241°
2026-05-06 13:44 36.58571 109.95894 32159 ft 396 kts 241°
2026-05-06 13:45 36.55480 109.90230 32179 ft 396 kts 241°
2026-05-06 13:45 36.50850 109.81746 32184 ft 396 kts 241°
2026-05-06 13:46 36.48274 109.77048 32163 ft 396 kts 241°
2026-05-06 13:46 36.45172 109.71399 32162 ft 396 kts 241°
2026-05-06 13:47 36.42066 109.65745 32174 ft 397 kts 241°
2026-05-06 13:47 36.38952 109.60081 32176 ft 397 kts 240°
2026-05-06 13:48 36.35834 109.54421 32184 ft 398 kts 241°
2026-05-06 13:48 36.32711 109.48763 32158 ft 398 kts 240°
2026-05-06 13:49 36.29560 109.43106 32174 ft 400 kts 238°
2026-05-06 13:49 36.25371 109.38408 32184 ft 418 kts 218°
2026-05-06 13:50 36.20102 109.35176 32184 ft 424 kts 214°
2026-05-06 13:50 36.14795 109.32000 32185 ft 423 kts 214°
2026-05-06 13:51 36.09494 109.28816 32166 ft 424 kts 214°
2026-05-06 13:51 36.04217 109.25655 32172 ft 425 kts 213°
2026-05-06 13:52 35.98891 109.22484 32179 ft 425 kts 213°
2026-05-06 13:52 35.93560 109.19317 32182 ft 425 kts 213°
2026-05-06 13:53 35.88225 109.16143 32180 ft 426 kts 213°
2026-05-06 13:53 35.82778 109.13162 32186 ft 433 kts 208°
2026-05-06 13:54 35.77121 109.10639 32196 ft 433 kts 207°
2026-05-06 13:54 35.71455 109.08120 32194 ft 433 kts 207°
2026-05-06 13:55 35.65791 109.05605 32174 ft 433 kts 207°
2026-05-06 13:55 35.60126 109.03089 32181 ft 433 kts 207°
2026-05-06 13:56 35.54460 109.00570 32188 ft 433 kts 207°
2026-05-06 13:56 35.48789 108.98064 32197 ft 433 kts 207°
2026-05-06 13:57 35.43111 108.95563 32174 ft 434 kts 207°
2026-05-06 13:57 35.37428 108.93054 32184 ft 434 kts 207°
2026-05-06 13:58 35.31731 108.90540 32186 ft 436 kts 207°
2026-05-06 13:58 35.26028 108.88037 32190 ft 436 kts 207°
2026-05-06 13:59 35.20314 108.85529 32162 ft 437 kts 206°
2026-05-06 13:59 35.14589 108.83022 32183 ft 437 kts 206°
2026-05-06 14:00 35.08852 108.80504 32180 ft 439 kts 206°
2026-05-06 14:00 35.03102 108.77994 32179 ft 439 kts 206°
2026-05-06 14:01 34.97350 108.75488 32202 ft 439 kts 206°
2026-05-06 14:01 34.91641 108.73001 32196 ft 438 kts 207°
2026-05-06 14:02 34.85901 108.70501 32201 ft 438 kts 207°
2026-05-06 14:02 34.80161 108.68001 32189 ft 438 kts 207°
2026-05-06 14:03 34.74413 108.65503 32170 ft 439 kts 206°
2026-05-06 14:03 34.68649 108.63014 32163 ft 440 kts 206°
2026-05-06 14:04 34.62872 108.60517 32169 ft 441 kts 206°
2026-05-06 14:04 34.57091 108.58017 32166 ft 441 kts 206°
2026-05-06 14:05 34.51303 108.55518 32153 ft 442 kts 206°
2026-05-06 14:05 34.45506 108.53028 32157 ft 443 kts 206°
2026-05-06 14:06 34.39696 108.50524 32159 ft 443 kts 206°
2026-05-06 14:06 34.33881 108.48022 32164 ft 444 kts 206°
2026-05-06 14:07 34.28054 108.45528 32144 ft 445 kts 206°
2026-05-06 14:07 34.22207 108.43033 32166 ft 446 kts 206°
2026-05-06 14:08 34.16355 108.40536 32170 ft 446 kts 206°
2026-05-06 14:08 34.10546 108.38048 32183 ft 446 kts 206°
2026-05-06 14:09 34.04655 108.35537 32168 ft 446 kts 205°
2026-05-06 14:09 33.98804 108.33042 32182 ft 446 kts 205°
2026-05-06 14:10 33.92947 108.30553 32180 ft 446 kts 205°
2026-05-06 14:10 33.87105 108.28077 32182 ft 446 kts 205°
2026-05-06 14:11 33.81296 108.25619 32170 ft 444 kts 205°
2026-05-06 14:11 33.75459 108.23152 32189 ft 445 kts 205°
2026-05-06 14:12 33.69623 108.20693 32194 ft 444 kts 205°
2026-05-06 14:12 33.63802 108.18233 32193 ft 444 kts 205°
2026-05-06 14:13 33.57973 108.15773 32180 ft 444 kts 204°
2026-05-06 14:13 33.52147 108.13315 32173 ft 443 kts 204°
2026-05-06 14:14 33.46328 108.10869 32165 ft 443 kts 204°
2026-05-06 14:14 33.40744 108.07926 32161 ft 434 kts 217°
2026-05-06 14:15 33.36033 108.03519 32135 ft 430 kts 223°
2026-05-06 14:15 33.31384 107.98933 32161 ft 434 kts 223°
2026-05-06 14:16 33.26711 107.94351 32155 ft 435 kts 223°
2026-05-06 14:16 33.22039 107.89770 32158 ft 435 kts 223°
2026-05-06 14:17 33.17382 107.85168 32150 ft 434 kts 223°
2026-05-06 14:17 33.12718 107.80565 32125 ft 436 kts 223°
2026-05-06 14:18 33.08035 107.75957 32122 ft 437 kts 223°
2026-05-06 14:18 33.03342 107.71348 32137 ft 437 kts 223°
2026-05-06 14:19 32.98652 107.66750 32151 ft 436 kts 223°
2026-05-06 14:19 32.93991 107.62195 32148 ft 436 kts 223°
2026-05-06 14:20 32.89295 107.57605 32129 ft 437 kts 223°
2026-05-06 14:20 32.84592 107.53005 32126 ft 438 kts 223°
2026-05-06 14:21 32.80165 107.48072 32126 ft 434 kts 234°
2026-05-06 14:21 32.76622 107.42290 32126 ft 433 kts 237°
2026-05-06 14:22 32.73083 107.36490 32128 ft 433 kts 236°
2026-05-06 14:22 32.69542 107.30711 32145 ft 433 kts 236°
2026-05-06 14:23 32.66006 107.24931 32136 ft 433 kts 236°
2026-05-06 14:23 32.62463 107.19153 32143 ft 433 kts 236°
2026-05-06 14:24 32.58918 107.13373 32145 ft 433 kts 236°
2026-05-06 14:24 32.55373 107.07602 32153 ft 433 kts 236°
2026-05-06 14:25 32.51819 107.01842 32136 ft 432 kts 236°
2026-05-06 14:25 32.48266 106.96093 32134 ft 433 kts 236°
2026-05-06 14:26 32.44713 106.90340 32142 ft 432 kts 236°
2026-05-06 14:26 32.41160 106.84595 32123 ft 432 kts 236°
2026-05-06 14:27 32.37602 106.78853 32123 ft 432 kts 236°
2026-05-06 14:27 32.34086 106.73088 32107 ft 431 kts 241°
2026-05-06 14:28 32.31787 106.66619 32110 ft 427 kts 256°
2026-05-06 14:28 32.30342 106.59816 32108 ft 427 kts 257°
2026-05-06 14:29 32.28870 106.53020 32108 ft 427 kts 257°
2026-05-06 14:29 32.27405 106.46274 32090 ft 427 kts 257°
2026-05-06 14:30 32.25924 106.39436 32096 ft 427 kts 257°
2026-05-06 14:30 32.24460 106.32717 32093 ft 427 kts 256°
2026-05-06 14:31 32.22964 106.25916 32097 ft 427 kts 256°
2026-05-06 14:31 32.21453 106.19144 32098 ft 427 kts 253°
2026-05-06 14:32 32.18799 106.12872 32082 ft 429 kts 239°
2026-05-06 14:32 32.15599 106.06921 32085 ft 430 kts 239°
2026-05-06 14:33 32.12939 106.01976 32080 ft 430 kts 240°
2026-05-06 14:33 32.09739 105.96015 32067 ft 430 kts 239°
2026-05-06 14:34 32.06535 105.90066 32067 ft 430 kts 239°
2026-05-06 14:34 32.03330 105.84114 32072 ft 430 kts 239°
2026-05-06 14:35 32.00118 105.78166 32071 ft 430 kts 239°
2026-05-06 14:35 31.96893 105.72230 32071 ft 430 kts 239°
2026-05-06 14:36 31.93669 105.66300 32061 ft 431 kts 239°
2026-05-06 14:36 31.90437 105.60351 32046 ft 431 kts 238°
2026-05-06 14:37 31.87206 105.54410 32047 ft 432 kts 238°
2026-05-06 14:37 31.83967 105.48454 32049 ft 433 kts 238°
2026-05-06 14:38 31.80709 105.42495 32047 ft 433 kts 238°
2026-05-06 14:38 31.77447 105.36533 32040 ft 434 kts 238°
2026-05-06 14:39 31.74188 105.30577 32051 ft 433 kts 238°
2026-05-06 14:39 31.70927 105.24622 32059 ft 433 kts 238°
2026-05-06 14:40 31.67672 105.18682 32049 ft 432 kts 238°
2026-05-06 14:40 31.64507 105.12747 32050 ft 431 kts 239°
2026-05-06 14:41 31.61351 105.06765 31970 ft 432 kts 239°
2026-05-06 14:41 31.59756 105.03773 31715 ft 433 kts 237°
2026-05-06 14:41 31.57917 105.00970 31470 ft 436 kts 229°
2026-05-06 14:42 31.55732 104.98494 31236 ft 439 kts 222°
2026-05-06 14:42 31.53403 104.96175 30997 ft 440 kts 222°
2026-05-06 14:42 31.51062 104.93843 30755 ft 442 kts 222°
2026-05-06 14:42 31.48723 104.91506 30530 ft 443 kts 222°
2026-05-06 14:43 31.46373 104.89156 30291 ft 445 kts 223°
2026-05-06 14:43 31.44019 104.86800 30056 ft 445 kts 223°
2026-05-06 14:43 31.41663 104.84443 29781 ft 446 kts 223°
2026-05-06 14:43 31.39302 104.82088 29521 ft 447 kts 223°
2026-05-06 14:44 31.36936 104.79730 29251 ft 447 kts 223°
2026-05-06 14:44 31.34564 104.77371 28986 ft 448 kts 222°
2026-05-06 14:44 31.32187 104.75008 28724 ft 449 kts 222°
2026-05-06 14:45 31.27431 104.70269 28207 ft 450 kts 222°
2026-05-06 14:45 31.25055 104.67897 27954 ft 449 kts 222°
2026-05-06 14:45 31.22584 104.65667 27686 ft 449 kts 216°
2026-05-06 14:45 31.19963 104.63687 27444 ft 448 kts 216°
2026-05-06 14:46 31.17355 104.61720 27201 ft 446 kts 216°
2026-05-06 14:46 31.14760 104.59759 26955 ft 444 kts 216°
2026-05-06 14:46 31.12174 104.57802 26714 ft 442 kts 216°
2026-05-06 14:46 31.09599 104.55857 26467 ft 440 kts 216°
2026-05-06 14:47 31.07032 104.53920 26218 ft 438 kts 216°
2026-05-06 14:47 31.04475 104.51993 25989 ft 437 kts 216°
2026-05-06 14:47 31.01930 104.50077 25768 ft 435 kts 216°
2026-05-06 14:47 30.99400 104.48177 25292 ft 431 kts 216°
2026-05-06 14:48 30.96886 104.46286 24529 ft 429 kts 216°
2026-05-06 14:48 30.94381 104.44403 23819 ft 427 kts 217°
2026-05-06 14:48 30.91891 104.42532 23022 ft 425 kts 216°
2026-05-06 14:48 30.89413 104.40671 22336 ft 421 kts 216°
2026-05-06 14:49 30.86970 104.38837 21675 ft 416 kts 215°
2026-05-06 14:49 30.84550 104.37019 21047 ft 412 kts 215°
2026-05-06 14:49 30.82161 104.35221 20450 ft 407 kts 214°
2026-05-06 14:49 30.79798 104.33443 19859 ft 403 kts 214°
2026-05-06 14:50 30.77459 104.31685 19305 ft 398 kts 213°
2026-05-06 14:50 30.75144 104.29952 18760 ft 394 kts 213°
2026-05-06 14:50 30.72851 104.28241 18223 ft 390 kts 213°
2026-05-06 14:50 30.70609 104.26570 17663 ft 385 kts 213°
2026-05-06 14:51 30.68374 104.24905 17140 ft 379 kts 213°
2026-05-06 14:51 30.66140 104.23239 16607 ft 375 kts 213°
2026-05-06 14:51 30.63957 104.21609 16078 ft 372 kts 213°
2026-05-06 14:51 30.61827 104.20018 15528 ft 370 kts 213°
2026-05-06 14:52 30.59671 104.18408 14996 ft 368 kts 212°
2026-05-06 14:52 30.57514 104.16802 14428 ft 368 kts 212°
2026-05-06 14:52 30.55358 104.15202 13856 ft 368 kts 212°
2026-05-06 14:52 30.53197 104.13596 13201 ft 369 kts 211°
2026-05-06 14:53 30.51040 104.11994 12609 ft 368 kts 212°
2026-05-06 14:53 30.48886 104.10395 12002 ft 368 kts 212°
2026-05-06 14:53 30.46730 104.08791 11371 ft 368 kts 212°
2026-05-06 14:53 30.44571 104.07185 10806 ft 369 kts 212°
2026-05-06 14:54 30.42448 104.05611 10674 ft 355 kts 212°
2026-05-06 14:54 30.40404 104.04099 10553 ft 342 kts 212°
2026-05-06 14:54 30.38432 104.02637 10436 ft 331 kts 212°
2026-05-06 14:54 30.36528 104.01224 10314 ft 319 kts 212°
2026-05-06 14:55 30.34718 103.99875 10176 ft 300 kts 212°
2026-05-06 14:55 30.32995 103.98595 10045 ft 290 kts 212°
2026-05-06 14:55 30.31317 103.97353 9821 ft 286 kts 212°
2026-05-06 14:55 30.29811 103.95822 9308 ft 292 kts 236°
2026-05-06 14:56 30.29026 103.93699 8895 ft 286 kts 265°
2026-05-06 14:56 30.29115 103.91457 8439 ft 273 kts 292°
2026-05-06 14:56 30.29782 103.89463 8024 ft 262 kts 299°
2026-05-06 14:56 30.30464 103.87532 7613 ft 257 kts 298°
2026-05-06 14:57 30.31163 103.85624 7219 ft 257 kts 306°
2026-05-06 14:57 30.32364 103.84177 6661 ft 250 kts 338°
2026-05-06 14:57 30.34028 103.83792 6159 ft 242 kts 11°
2026-05-06 14:57 30.35604 103.84350 5836 ft 235 kts 25°
2026-05-06 14:58 30.37115 103.85062 5527 ft 234 kts 25°
2026-05-06 14:58 30.38612 103.85762 5230 ft 229 kts 23°
2026-05-06 14:58 30.40048 103.86428 4943 ft 215 kts 23°
2026-05-06 14:58 30.41401 103.87055 4673 ft 204 kts 23°
2026-05-06 14:59 30.42682 103.87650 4409 ft 194 kts 22°
2026-05-06 14:59 30.43914 103.88221 4158 ft 189 kts 22°
2026-05-06 14:59 30.45124 103.88783 3913 ft 185 kts 21°
2026-05-06 14:59 30.46276 103.89318 3713 ft 171 kts 21°
2026-05-06 15:00 30.47310 103.89799 3482 ft 151 kts 19°
2026-05-06 15:00 30.48241 103.90232 3290 ft 139 kts 18°
2026-05-06 15:00 30.49116 103.90638 3112 ft 136 kts 18°
2026-05-06 15:00 30.49990 103.91043 2935 ft 135 kts 17°
2026-05-06 15:01 30.50862 103.91448 2754 ft 135 kts 18°
2026-05-06 15:01 30.51738 103.91855 2593 ft 135 kts 18°
2026-05-06 15:01 30.52612 103.92261 2421 ft 137 kts 18°
2026-05-06 15:01 30.53511 103.92679 2237 ft 139 kts 19°
2026-05-06 15:02 30.54407 103.93099 2049 ft 138 kts 18°
2026-05-06 15:02 30.55293 103.93517 1883 ft 140 kts 19°
2026-05-06 15:02 30.56194 103.93933 1690 ft 138 kts 19°
2026-05-06 15:02 30.57031 103.94320 1646 ft 112 kts 23°
2026-05-06 15:03 30.57606 103.94588 1645 ft 70 kts 21°
2026-05-06 15:03 30.57994 103.94769 1648 ft 55 kts 21°
2026-05-06 15:03 30.58270 103.94897 1646 ft 32 kts 22°
2026-05-06 15:03 30.58456 103.95031 1646 ft 32 kts 41°
2026-05-06 15:04 30.58560 103.95182 1647 ft 16 kts 71°
2026-05-06 15:04 30.58536 103.95297 1647 ft 14 kts 112°
2026-05-06 15:04 30.58483 103.95381 1647 ft 13 kts 161°
2026-05-06 15:04 30.58404 103.95360 1647 ft 11 kts 202°
2026-05-06 15:05 30.58337 103.95328 1647 ft 10 kts 201°
2026-05-06 15:05 30.58276 103.95300 1647 ft 10 kts 204°
2026-05-06 15:05 30.58182 103.95256 1647 ft 20 kts 201°
2026-05-06 15:05 30.58013 103.95176 1647 ft 30 kts 202°
2026-05-06 15:06 30.57815 103.95083 1647 ft 32 kts 202°
2026-05-06 15:06 30.57609 103.94987 1647 ft 33 kts 201°
2026-05-06 15:06 30.57394 103.94886 1647 ft 33 kts 202°
2026-05-06 15:06 30.57198 103.94797 1647 ft 25 kts 201°
2026-05-06 15:07 30.57043 103.94721 1647 ft 25 kts 203°
2026-05-06 15:07 30.56899 103.94741 1647 ft 22 kts 130°
2026-05-06 15:07 30.56781 103.94760 1647 ft 15 kts 188°
2026-05-06 15:07 30.56725 103.94742 1647 ft 0 kts 196°